QPF
0.00 0.00 0.00 0.00 0.00 0.00 0.00 0.00 0.00 0.00 0.01 0.01 0.00 0.00 0.00 0.00 0.00 0.00 0.00 0.00 0.01 0.01 0.02 0.02 0.02 0.02 0.02 0.02 0.01 0.02 0.02 0.03 0.04 0.04 0.03 0.03 0.03 0.03 0.03 0.03 0.03 0.03 0.03 0.03
0.00 0.00 0.00 0.00 0.00 0.00 0.00 0.00 0.00 0.00 0.00 0.00 0.01 0.00 0.00 0.00 0.00 0.00 0.00 0.01 0.01 0.01 0.01 0.01 0.01 0.02 0.03 0.03 0.03 0.03 0.03 0.04 0.05 0.04 0.04 0.03 0.04 0.03 0.02 0.02 0.02 0.03 0.03 0.04
0.00 0.00 0.00 0.00 0.00 0.00 0.00 0.00 0.00 0.00 0.00 0.00 0.00 0.00 0.00 0.00 0.00 0.01 0.01 0.01 0.01 0.00 0.00 0.00 0.00 0.01 0.02 0.04 0.05 0.06 0.05 0.05 0.05 0.03 0.03 0.03 0.03 0.03 0.02 0.03 0.04 0.03 0.03 0.04
0.00 0.00 0.00 0.00 0.00 0.00 0.00 0.00 0.00 0.00 0.00 0.00 0.00 0.00 0.00 0.00 0.00 0.00 0.00 0.00 0.00 0.00 0.00 0.01 0.01 0.02 0.03 0.04 0.05 0.06 0.05 0.04 0.03 0.03 0.03 0.02 0.02 0.02 0.03 0.04 0.04 0.04 0.04 0.04
0.00 0.00 0.00 0.00 0.00 0.00 0.01 0.00 0.00 0.00 0.00 0.00 0.00 0.00 0.01 0.02 0.01 0.00 0.00 0.00 0.00 0.00 0.00 0.00 0.01 0.01 0.02 0.03 0.04 0.05 0.05 0.04 0.04 0.04 0.04 0.03 0.02 0.02 0.03 0.03 0.04 0.04 0.04 0.04
0.00 0.00 0.00 0.00 0.00 0.00 0.00 0.01 0.00 0.00 0.00 0.00 0.00 0.00 0.00 0.00 0.00 0.00 0.00 0.00 0.00 0.00 0.00 0.00 0.01 0.01 0.01 0.02 0.03 0.03 0.03 0.04 0.04 0.04 0.04 0.04 0.04 0.03 0.03 0.03 0.03 0.03 0.03 0.03
0.01 0.01 0.00 0.00 0.00 0.00 0.00 0.01 0.00 0.00 0.00 0.00 0.00 0.00 0.00 0.00 0.00 0.00 0.00 0.00 0.00 0.00 0.00 0.01 0.00 0.00 0.00 0.01 0.02 0.02 0.03 0.03 0.03 0.03 0.04 0.04 0.04 0.03 0.03 0.03 0.03 0.02 0.02 0.03
0.02 0.02 0.01 0.00 0.00 0.00 0.00 0.00 0.00 0.00 0.00 0.00 0.00 0.00 0.00 0.00 0.00 0.00 0.00 0.00 0.00 0.00 0.00 0.00 0.00 0.00 0.00 0.01 0.01 0.02 0.02 0.02 0.02 0.03 0.03 0.04 0.04 0.04 0.03 0.03 0.03 0.03 0.03 0.03
0.01 0.01 0.01 0.01 0.01 0.01 0.00 0.00 0.00 0.00 0.00 0.00 0.00 0.00 0.00 0.01 0.01 0.01 0.01 0.00 0.00 0.00 0.00 0.00 0.00 0.00 0.00 0.01 0.01 0.01 0.01 0.02 0.02 0.02 0.02 0.03 0.03 0.03 0.03 0.03 0.03 0.03 0.03 0.03
0.01 0.01 0.02 0.02 0.02 0.01 0.00 0.00 0.00 0.00 0.00 0.00 0.00 0.00 0.00 0.01 0.01 0.01 0.02 0.02 0.02 0.02 0.01 0.01 0.01 0.01 0.01 0.01 0.01 0.01 0.01 0.02 0.01 0.01 0.01 0.02 0.02 0.03 0.04 0.04 0.04 0.04 0.04 0.04
0.01 0.01 0.01 0.01 0.01 0.00 0.00 0.00 0.00 0.00 0.00 0.00 0.00 0.00 0.00 0.00 0.01 0.01 0.01 0.02 0.04 0.04 0.02 0.01 0.01 0.02 0.01 0.02 0.01 0.01 0.02 0.01 0.01 0.01 0.02 0.02 0.02 0.03 0.04 0.04 0.05 0.05 0.05 0.05
0.01 0.01 0.01 0.01 0.00 0.00 0.00 0.01 0.01 0.01 0.01 0.01 0.01 0.01 0.01 0.01 0.01 0.01 0.01 0.01 0.02 0.03 0.03 0.02 0.02 0.02 0.01 0.02 0.01 0.02 0.01 0.01 0.02 0.02 0.02 0.02 0.02 0.03 0.04 0.04 0.04 0.04 0.05 0.07
0.01 0.00 0.00 0.01 0.00 0.00 0.00 0.01 0.01 0.01 0.02 0.02 0.02 0.01 0.01 0.01 0.01 0.01 0.01 0.01 0.02 0.02 0.03 0.02 0.02 0.02 0.02 0.02 0.02 0.02 0.02 0.03 0.03 0.03 0.03 0.03 0.02 0.02 0.03 0.05 0.06 0.06 0.06 0.06
0.02 0.01 0.01 0.01 0.01 0.01 0.01 0.01 0.01 0.01 0.02 0.03 0.02 0.01 0.01 0.02 0.02 0.01 0.01 0.01 0.01 0.01 0.02 0.02 0.02 0.02 0.03 0.03 0.03 0.03 0.03 0.04 0.04 0.04 0.04 0.03 0.03 0.03 0.04 0.05 0.07 0.08 0.08 0.08
0.04 0.04 0.02 0.02 0.02 0.02 0.02 0.03 0.03 0.02 0.02 0.02 0.01 0.01 0.01 0.01 0.01 0.01 0.01 0.01 0.01 0.01 0.02 0.02 0.02 0.02 0.04 0.04 0.03 0.04 0.04 0.04 0.05 0.05 0.04 0.04 0.04 0.05 0.05 0.06 0.07 0.08 0.07 0.07
0.03 0.03 0.02 0.02 0.03 0.03 0.04 0.04 0.04 0.04 0.04 0.04 0.02 0.02 0.02 0.02 0.02 0.02 0.02 0.02 0.03 0.02 0.02 0.02 0.02 0.02 0.03 0.03 0.03 0.05 0.05 0.05 0.05 0.05 0.05 0.04 0.04 0.05 0.05 0.07 0.07 0.06 0.05 0.06
0.03 0.03 0.03 0.03 0.02 0.02 0.02 0.02 0.02 0.02 0.02 0.03 0.03 0.03 0.03 0.04 0.05 0.04 0.03 0.03 0.03 0.03 0.04 0.03 0.03 0.03 0.04 0.03 0.03 0.04 0.05 0.05 0.06 0.06 0.06 0.06 0.06 0.05 0.06 0.05 0.04 0.05 0.04 0.05
0.03 0.03 0.03 0.03 0.02 0.02 0.02 0.02 0.03 0.04 0.05 0.06 0.06 0.05 0.05 0.08 0.08 0.05 0.04 0.04 0.04 0.04 0.04 0.05 0.04 0.04 0.04 0.04 0.04 0.05 0.05 0.06 0.06 0.08 0.09 0.09 0.08 0.05 0.05 0.06 0.04 0.03 0.04 0.05
0.03 0.03 0.03 0.02 0.02 0.02 0.03 0.03 0.04 0.04 0.06 0.07 0.07 0.09 0.12 0.12 0.09 0.07 0.06 0.06 0.07 0.05 0.05 0.05 0.04 0.03 0.03 0.04 0.04 0.04 0.04 0.05 0.06 0.07 0.09 0.11 0.10 0.07 0.06 0.07 0.07 0.05 0.03 0.03
0.04 0.04 0.03 0.03 0.02 0.02 0.03 0.04 0.05 0.06 0.07 0.08 0.08 0.09 0.09 0.10 0.08 0.06 0.05 0.05 0.05 0.06 0.07 0.06 0.05 0.05 0.04 0.05 0.04 0.03 0.05 0.06 0.05 0.05 0.06 0.09 0.10 0.08 0.08 0.09 0.09 0.06 0.04 0.03
0.05 0.05 0.04 0.04 0.03 0.03 0.03 0.04 0.06 0.07 0.07 0.07 0.06 0.06 0.06 0.06 0.06 0.06 0.05 0.06 0.06 0.06 0.06 0.06 0.08 0.08 0.06 0.06 0.05 0.04 0.06 0.07 0.06 0.05 0.05 0.06 0.08 0.08 0.09 0.09 0.08 0.05 0.04 0.03
0.05 0.05 0.05 0.04 0.03 0.04 0.04 0.04 0.04 0.05 0.05 0.06 0.06 0.06 0.06 0.05 0.05 0.05 0.04 0.04 0.05 0.04 0.04 0.05 0.06 0.08 0.07 0.06 0.04 0.05 0.06 0.04 0.03 0.04 0.05 0.05 0.07 0.07 0.08 0.08 0.07 0.05 0.04 0.04
0.05 0.05 0.05 0.05 0.06 0.06 0.05 0.04 0.04 0.04 0.04 0.05 0.06 0.05 0.05 0.04 0.04 0.04 0.03 0.03 0.03 0.03 0.03 0.03 0.04 0.04 0.04 0.04 0.04 0.04 0.04 0.04 0.04 0.05 0.04 0.04 0.06 0.07 0.08 0.09 0.08 0.05 0.03 0.03
0.05 0.05 0.05 0.05 0.06 0.06 0.06 0.05 0.04 0.04 0.04 0.04 0.05 0.05 0.03 0.03 0.03 0.03 0.03 0.03 0.03 0.04 0.03 0.02 0.02 0.02 0.03 0.03 0.03 0.04 0.04 0.04 0.04 0.04 0.04 0.04 0.04 0.05 0.06 0.08 0.07 0.05 0.03 0.02
0.05 0.05 0.05 0.06 0.06 0.06 0.06 0.06 0.05 0.05 0.06 0.07 0.07 0.06 0.06 0.05 0.04 0.04 0.04 0.04 0.05 0.05 0.04 0.02 0.02 0.02 0.03 0.03 0.03 0.04 0.04 0.03 0.03 0.03 0.03 0.03 0.04 0.04 0.04 0.06 0.05 0.03 0.02 0.02
0.06 0.07 0.07 0.07 0.07 0.06 0.06 0.06 0.06 0.06 0.06 0.06 0.05 0.06 0.07 0.05 0.04 0.05 0.06 0.06 0.06 0.06 0.05 0.04 0.04 0.03 0.03 0.03 0.03 0.04 0.04 0.04 0.03 0.02 0.02 0.03 0.05 0.05 0.04 0.04 0.03 0.03 0.03 0.03
0.05 0.06 0.07 0.07 0.06 0.06 0.06 0.06 0.05 0.05 0.04 0.04 0.04 0.05 0.05 0.04 0.04 0.05 0.06 0.06 0.06 0.05 0.04 0.03 0.03 0.03 0.04 0.04 0.05 0.06 0.05 0.05 0.05 0.04 0.04 0.04 0.04 0.03 0.02 0.02 0.02 0.02 0.02 0.02
MSLP
1004.70 1004.67 1004.54 1004.34 1004.07 1003.77 1003.45 1003.12 1002.80 1002.51 1002.25 1002.04 1001.90 1001.81 1001.77 1001.76 1001.76 1001.74 1001.68 1001.56 1001.38 1001.16 1000.92 1000.71 1000.59 1000.59 1000.76 1001.10 1001.62 1002.26 1002.98 1003.73 1004.43 1005.06 1005.58 1005.97 1006.26 1006.48 1006.67 1006.87 1007.10 1007.40 1007.76 1008.17
1005.62 1005.46 1005.12 1004.66 1004.10 1003.50 1002.92 1002.41 1002.01 1001.75 1001.63 1001.66 1001.82 1002.06 1002.35 1002.62 1002.83 1002.94 1002.92 1002.76 1002.47 1002.08 1001.66 1001.25 1000.93 1000.74 1000.73 1000.92 1001.28 1001.79 1002.40 1003.05 1003.69 1004.27 1004.77 1005.17 1005.50 1005.77 1006.02 1006.27 1006.55 1006.88 1007.25 1007.66
1006.32 1006.05 1005.56 1004.90 1004.13 1003.31 1002.54 1001.90 1001.44 1001.20 1001.20 1001.41 1001.81 1002.32 1002.86 1003.36 1003.76 1003.98 1004.02 1003.85 1003.50 1003.01 1002.46 1001.92 1001.45 1001.11 1000.95 1000.97 1001.18 1001.53 1001.99 1002.51 1003.04 1003.54 1003.99 1004.39 1004.73 1005.04 1005.34 1005.65 1005.98 1006.34 1006.73 1007.14
1006.71 1006.38 1005.81 1005.04 1004.14 1003.20 1002.33 1001.61 1001.12 1000.91 1000.98 1001.32 1001.88 1002.56 1003.28 1003.94 1004.46 1004.79 1004.87 1004.73 1004.37 1003.85 1003.25 1002.64 1002.09 1001.65 1001.37 1001.26 1001.31 1001.49 1001.79 1002.14 1002.53 1002.92 1003.29 1003.64 1003.97 1004.29 1004.63 1004.98 1005.35 1005.74 1006.14 1006.55
1006.77 1006.43 1005.84 1005.05 1004.13 1003.16 1002.27 1001.54 1001.07 1000.89 1001.01 1001.42 1002.06 1002.82 1003.62 1004.36 1004.95 1005.33 1005.46 1005.35 1005.02 1004.53 1003.95 1003.34 1002.77 1002.29 1001.93 1001.71 1001.63 1001.66 1001.78 1001.96 1002.17 1002.41 1002.67 1002.94 1003.22 1003.53 1003.88 1004.24 1004.64 1005.04 1005.45 1005.85
1006.55 1006.22 1005.68 1004.94 1004.07 1003.17 1002.34 1001.68 1001.25 1001.11 1001.27 1001.70 1002.35 1003.12 1003.92 1004.66 1005.25 1005.64 1005.81 1005.73 1005.46 1005.03 1004.51 1003.96 1003.42 1002.95 1002.56 1002.28 1002.08 1001.97 1001.92 1001.92 1001.96 1002.04 1002.15 1002.31 1002.52 1002.78 1003.09 1003.45 1003.84 1004.24 1004.65 1005.04
1006.11 1005.82 1005.34 1004.71 1003.98 1003.22 1002.52 1001.96 1001.62 1001.54 1001.72 1002.14 1002.75 1003.46 1004.20 1004.87 1005.42 1005.78 1005.95 1005.91 1005.69 1005.34 1004.91 1004.45 1003.99 1003.56 1003.18 1002.86 1002.59 1002.36 1002.16 1002.00 1001.86 1001.77 1001.73 1001.76 1001.86 1002.04 1002.29 1002.61 1002.98 1003.37 1003.76 1004.13
1005.54 1005.29 1004.91 1004.42 1003.85 1003.27 1002.75 1002.34 1002.12 1002.10 1002.30 1002.69 1003.23 1003.85 1004.48 1005.05 1005.50 1005.81 1005.95 1005.92 1005.76 1005.49 1005.16 1004.79 1004.42 1004.06 1003.71 1003.38 1003.06 1002.74 1002.43 1002.12 1001.84 1001.59 1001.40 1001.29 1001.28 1001.36 1001.53 1001.79 1002.11 1002.47 1002.84 1003.21
1004.94 1004.73 1004.44 1004.10 1003.71 1003.33 1003.00 1002.76 1002.66 1002.72 1002.94 1003.29 1003.75 1004.26 1004.75 1005.19 1005.54 1005.76 1005.85 1005.82 1005.69 1005.49 1005.24 1004.97 1004.68 1004.39 1004.09 1003.77 1003.43 1003.06 1002.66 1002.24 1001.84 1001.46 1001.14 1000.91 1000.78 1000.76 1000.85 1001.04 1001.30 1001.62 1001.97 1002.33
1004.40 1004.21 1004.01 1003.80 1003.59 1003.39 1003.24 1003.16 1003.18 1003.31 1003.54 1003.85 1004.23 1004.62 1004.98 1005.29 1005.51 1005.64 1005.68 1005.63 1005.52 1005.36 1005.17 1004.97 1004.76 1004.53 1004.28 1003.98 1003.64 1003.24 1002.79 1002.31 1001.82 1001.36 1000.95 1000.62 1000.40 1000.29 1000.29 1000.41 1000.61 1000.89 1001.21 1001.57
1003.97 1003.80 1003.68 1003.58 1003.50 1003.46 1003.46 1003.50 1003.61 1003.79 1004.02 1004.29 1004.58 1004.86 1005.10 1005.28 1005.40 1005.44 1005.42 1005.34 1005.23 1005.09 1004.95 1004.80 1004.65 1004.47 1004.25 1003.98 1003.65 1003.26 1002.80 1002.30 1001.78 1001.27 1000.80 1000.41 1000.13 999.95 999.89 999.94 1000.09 1000.33 1000.63 1000.99
1003.68 1003.54 1003.46 1003.45 1003.47 1003.53 1003.62 1003.75 1003.91 1004.10 1004.31 1004.53 1004.73 1004.91 1005.04 1005.12 1005.14 1005.11 1005.04 1004.94 1004.82 1004.70 1004.58 1004.46 1004.34 1004.20 1004.02 1003.79 1003.49 1003.12 1002.68 1002.20 1001.69 1001.18 1000.70 1000.29 999.97 999.76 999.66 999.66 999.77 999.97 1000.25 1000.59
1003.52 1003.41 1003.38 1003.41 1003.50 1003.61 1003.75 1003.90 1004.06 1004.22 1004.38 1004.52 1004.64 1004.72 1004.76 1004.75 1004.71 1004.62 1004.51 1004.39 1004.27 1004.16 1004.06 1003.97 1003.87 1003.77 1003.62 1003.43 1003.17 1002.85 1002.47 1002.03 1001.57 1001.09 1000.65 1000.25 999.93 999.70 999.57 999.54 999.61 999.78 1000.03 1000.35
1003.46 1003.39 1003.40 1003.47 1003.58 1003.71 1003.84 1003.96 1004.07 1004.16 1004.24 1004.28 1004.30 1004.29 1004.25 1004.17 1004.07 1003.95 1003.82 1003.70 1003.58 1003.48 1003.41 1003.34 1003.28 1003.21 1003.11 1002.96 1002.77 1002.51 1002.20 1001.83 1001.44 1001.03 1000.63 1000.27 999.97 999.74 999.59 999.54 999.58 999.72 999.93 1000.22
1003.43 1003.43 1003.49 1003.59 1003.70 1003.81 1003.89 1003.94 1003.97 1003.96 1003.92 1003.85 1003.77 1003.66 1003.53 1003.40 1003.26 1003.12 1002.99 1002.87 1002.77 1002.70 1002.65 1002.62 1002.59 1002.57 1002.52 1002.44 1002.31 1002.14 1001.91 1001.63 1001.32 1000.98 1000.65 1000.33 1000.06 999.84 999.68 999.61 999.62 999.71 999.88 1000.13
1003.40 1003.49 1003.61 1003.74 1003.85 1003.91 1003.93 1003.89 1003.80 1003.66 1003.49 1003.30 1003.10 1002.90 1002.70 1002.51 1002.34 1002.19 1002.06 1001.96 1001.89 1001.85 1001.83 1001.84 1001.87 1001.90 1001.91 1001.90 1001.86 1001.77 1001.63 1001.44 1001.21 1000.95 1000.68 1000.41 1000.15 999.94 999.77 999.67 999.64 999.68 999.80 1000.00
1003.34 1003.53 1003.73 1003.89 1003.99 1004.01 1003.95 1003.81 1003.60 1003.34 1003.04 1002.73 1002.41 1002.12 1001.84 1001.60 1001.40 1001.23 1001.11 1001.02 1000.98 1000.97 1001.00 1001.06 1001.14 1001.23 1001.31 1001.38 1001.41 1001.41 1001.36 1001.26 1001.11 1000.92 1000.69 1000.45 1000.21 999.98 999.79 999.65 999.57 999.56 999.63 999.76
1003.25 1003.55 1003.81 1004.01 1004.10 1004.09 1003.96 1003.73 1003.41 1003.03 1002.62 1002.20 1001.78 1001.40 1001.06 1000.77 1000.53 1000.35 1000.22 1000.15 1000.12 1000.14 1000.21 1000.31 1000.44 1000.58 1000.73 1000.87 1000.99 1001.07 1001.09 1001.06 1000.98 1000.83 1000.64 1000.41 1000.17 999.92 999.70 999.51 999.38 999.31 999.30 999.37
1003.15 1003.53 1003.85 1004.07 1004.17 1004.12 1003.94 1003.64 1003.24 1002.78 1002.28 1001.77 1001.28 1000.83 1000.44 1000.10 999.83 999.62 999.48 999.39 999.37 999.40 999.48 999.61 999.78 999.97 1000.17 1000.38 1000.56 1000.70 1000.79 1000.82 1000.78 1000.66 1000.49 1000.26 1000.00 999.72 999.45 999.22 999.02 998.89 998.83 998.84
1003.06 1003.49 1003.84 1004.07 1004.15 1004.08 1003.86 1003.52 1003.08 1002.56 1002.01 1001.46 1000.93 1000.44 1000.00 999.63 999.32 999.09 998.91 998.81 998.76 998.78 998.86 998.99 999.17 999.38 999.62 999.86 1000.09 1000.28 1000.41 1000.48 1000.47 1000.38 1000.21 999.97 999.69 999.38 999.07 998.78 998.54 998.36 998.24 998.20
1003.01 1003.44 1003.78 1003.98 1004.04 1003.94 1003.70 1003.33 1002.87 1002.35 1001.79 1001.23 1000.70 1000.20 999.75 999.36 999.02 998.75 998.54 998.40 998.31 998.29 998.34 998.44 998.61 998.82 999.06 999.32 999.57 999.79 999.95 1000.04 1000.05 999.97 999.80 999.56 999.26 998.93 998.59 998.27 997.99 997.77 997.62 997.53
1003.00 1003.37 1003.64 1003.79 1003.80 1003.67 1003.41 1003.04 1002.59 1002.09 1001.57 1001.05 1000.54 1000.07 999.63 999.24 998.89 998.59 998.34 998.14 998.00 997.92 997.91 997.97 998.09 998.27 998.50 998.75 998.99 999.22 999.40 999.50 999.53 999.46 999.30 999.07 998.77 998.44 998.09 997.76 997.47 997.23 997.06 996.96
1002.99 1003.26 1003.43 1003.49 1003.43 1003.25 1002.97 1002.61 1002.20 1001.75 1001.29 1000.84 1000.40 999.98 999.59 999.22 998.87 998.55 998.26 998.01 997.81 997.66 997.58 997.56 997.62 997.75 997.93 998.15 998.39 998.61 998.79 998.91 998.96 998.91 998.78 998.57 998.30 997.99 997.66 997.35 997.08 996.85 996.69 996.59
1002.94 1003.07 1003.11 1003.05 1002.91 1002.68 1002.39 1002.05 1001.68 1001.31 1000.94 1000.58 1000.23 999.90 999.57 999.24 998.91 998.58 998.27 997.97 997.70 997.47 997.31 997.22 997.21 997.27 997.40 997.58 997.79 998.00 998.19 998.32 998.40 998.39 998.30 998.14 997.92 997.67 997.40 997.14 996.91 996.72 996.58 996.50
1002.81 1002.78 1002.67 1002.49 1002.26 1001.98 1001.68 1001.37 1001.06 1000.78 1000.51 1000.25 1000.01 999.77 999.52 999.25 998.96 998.64 998.31 997.97 997.65 997.36 997.13 996.96 996.88 996.87 996.95 997.09 997.27 997.46 997.66 997.82 997.93 997.97 997.95 997.86 997.72 997.55 997.36 997.17 997.01 996.88 996.79 996.74
1002.53 1002.35 1002.11 1001.83 1001.52 1001.21 1000.91 1000.63 1000.40 1000.20 1000.03 999.89 999.76 999.62 999.46 999.25 999.00 998.70 998.36 998.00 997.64 997.30 997.01 996.78 996.64 996.58 996.61 996.71 996.87 997.06 997.26 997.46 997.61 997.72 997.78 997.78 997.73 997.66 997.56 997.46 997.38 997.32 997.28 997.27
1002.10 1001.80 1001.47 1001.11 1000.76 1000.43 1000.15 999.92 999.76 999.65 999.58 999.55 999.52 999.47 999.38 999.23 999.02 998.74 998.41 998.05 997.67 997.30 996.97 996.70 996.51 996.42 996.41 996.49 996.64 996.84 997.07 997.29 997.50 997.68 997.82 997.91 997.96 997.98 997.98 997.97 997.96 997.96 997.97 997.99
Thickness
5806 5819 5826 5824 5825 5828 5826 5826 5817 5820 5823 5829 5840 5842 5844 5845 5847 5845 5841 5838 5834 5830 5827 5825 5822 5819 5817 5815 5813 5810 5805 5800 5796 5794 5791 5787 5784 5782 5779 5777 5775 5771 5768 5765
5790 5808 5814 5812 5819 5823 5824 5826 5823 5822 5822 5838 5840 5839 5836 5836 5837 5834 5833 5832 5830 5826 5822 5819 5816 5814 5812 5809 5808 5805 5800 5796 5794 5791 5787 5784 5781 5779 5776 5773 5771 5768 5765 5762
5771 5793 5797 5789 5807 5814 5819 5826 5822 5812 5822 5836 5829 5826 5826 5826 5827 5827 5826 5826 5824 5821 5818 5815 5813 5810 5806 5804 5802 5799 5795 5792 5789 5787 5783 5780 5779 5775 5771 5768 5766 5763 5761 5758
5761 5767 5752 5791 5822 5820 5814 5817 5823 5822 5824 5826 5824 5826 5826 5826 5821 5819 5821 5820 5818 5816 5814 5812 5809 5806 5803 5800 5795 5792 5789 5786 5785 5781 5778 5776 5773 5769 5767 5764 5761 5759 5756 5754
5748 5748 5758 5786 5806 5809 5801 5799 5814 5812 5814 5817 5819 5817 5812 5816 5816 5813 5814 5814 5814 5812 5810 5806 5803 5800 5796 5792 5789 5785 5782 5780 5779 5776 5773 5770 5766 5764 5761 5758 5756 5754 5752 5750
5739 5735 5738 5769 5797 5810 5799 5777 5798 5802 5801 5803 5803 5790 5791 5805 5808 5806 5807 5808 5807 5806 5803 5798 5795 5793 5787 5784 5781 5778 5777 5775 5774 5771 5767 5763 5760 5758 5755 5752 5750 5749 5747 5746
5725 5727 5744 5774 5789 5792 5760 5758 5782 5789 5790 5790 5783 5783 5788 5795 5797 5798 5798 5798 5797 5795 5792 5789 5788 5785 5778 5775 5772 5772 5772 5769 5767 5764 5761 5758 5755 5752 5749 5746 5744 5742 5741 5741
5718 5716 5726 5761 5768 5756 5752 5767 5772 5775 5778 5777 5777 5780 5781 5781 5782 5783 5784 5785 5785 5782 5781 5781 5779 5775 5770 5767 5767 5766 5764 5761 5758 5756 5754 5752 5747 5745 5742 5739 5737 5735 5733 5733
5717 5718 5735 5748 5747 5750 5755 5754 5758 5761 5765 5766 5765 5766 5768 5767 5768 5769 5770 5772 5773 5771 5769 5770 5770 5766 5761 5761 5760 5758 5755 5752 5750 5748 5747 5745 5740 5737 5734 5732 5730 5728 5726 5725
5708 5717 5726 5733 5736 5739 5742 5743 5748 5752 5754 5754 5753 5755 5755 5756 5756 5756 5758 5759 5759 5758 5756 5757 5759 5758 5756 5754 5752 5749 5745 5743 5742 5740 5738 5737 5734 5732 5729 5726 5724 5722 5720 5719
5694 5704 5711 5715 5720 5725 5729 5733 5736 5739 5741 5741 5741 5743 5744 5744 5745 5747 5748 5748 5747 5744 5743 5745 5748 5747 5747 5746 5743 5739 5736 5735 5734 5733 5731 5728 5727 5725 5723 5721 5720 5716 5715 5714
5680 5691 5694 5698 5707 5714 5715 5717 5721 5723 5726 5730 5731 5730 5732 5733 5734 5736 5736 5737 5736 5735 5735 5736 5737 5736 5736 5736 5734 5730 5727 5726 5726 5725 5724 5722 5719 5717 5714 5713 5710 5708 5707 5705
5680 5686 5689 5693 5697 5702 5703 5706 5709 5712 5713 5715 5718 5720 5721 5721 5723 5725 5726 5726 5725 5726 5726 5726 5726 5725 5726 5726 5724 5721 5719 5718 5718 5718 5717 5715 5713 5710 5707 5703 5701 5699 5697 5696
5668 5672 5671 5677 5682 5688 5691 5695 5698 5701 5703 5705 5706 5710 5711 5710 5711 5712 5714 5716 5717 5717 5717 5716 5715 5716 5718 5717 5715 5713 5712 5711 5710 5710 5709 5708 5707 5706 5703 5699 5695 5693 5689 5686
5656 5661 5663 5667 5672 5676 5679 5682 5684 5686 5689 5692 5695 5698 5699 5699 5699 5702 5704 5707 5707 5707 5707 5707 5706 5707 5709 5708 5706 5705 5704 5704 5704 5704 5703 5702 5701 5700 5698 5695 5692 5689 5686 5681
5649 5652 5655 5657 5659 5663 5666 5669 5672 5676 5679 5682 5686 5687 5690 5691 5692 5693 5694 5696 5695 5695 5696 5697 5697 5699 5700 5699 5698 5697 5697 5696 5696 5696 5696 5695 5694 5692 5690 5688 5685 5683 5681 5678
5638 5638 5641 5644 5648 5652 5656 5659 5663 5666 5670 5672 5676 5679 5682 5683 5682 5682 5684 5685 5685 5686 5687 5688 5689 5691 5691 5691 5690 5691 5691 5690 5688 5687 5687 5687 5686 5684 5683 5681 5680 5677 5676 5674
5634 5636 5637 5637 5640 5643 5646 5650 5653 5656 5659 5662 5665 5668 5671 5671 5671 5672 5674 5675 5676 5677 5678 5680 5681 5681 5682 5682 5682 5684 5683 5683 5682 5680 5680 5679 5678 5677 5676 5674 5673 5671 5669 5667
5628 5630 5631 5632 5633 5635 5637 5640 5644 5647 5651 5653 5654 5657 5660 5661 5662 5663 5664 5664 5664 5665 5668 5670 5669 5671 5673 5675 5674 5675 5675 5675 5674 5673 5672 5670 5670 5670 5668 5666 5664 5664 5663 5661
5621 5623 5624 5626 5628 5629 5632 5634 5636 5639 5642 5644 5646 5648 5650 5652 5654 5655 5655 5655 5657 5658 5660 5661 5661 5663 5665 5667 5665 5667 5667 5666 5665 5665 5664 5664 5662 5661 5661 5659 5658 5658 5657 5655
5615 5617 5617 5619 5621 5623 5625 5627 5629 5631 5634 5636 5638 5640 5643 5645 5646 5646 5646 5647 5649 5650 5651 5651 5652 5654 5656 5656 5656 5658 5658 5657 5656 5656 5655 5655 5655 5654 5653 5651 5650 5650 5650 5649
5609 5610 5611 5613 5614 5616 5619 5621 5623 5624 5626 5628 5631 5634 5636 5637 5639 5639 5640 5640 5643 5641 5642 5644 5645 5645 5645 5645 5648 5650 5650 5650 5649 5648 5648 5647 5646 5645 5644 5642 5641 5641 5641 5640
5603 5604 5606 5607 5609 5611 5614 5616 5617 5618 5620 5622 5624 5626 5628 5630 5632 5633 5633 5636 5637 5634 5635 5635 5635 5634 5634 5637 5640 5642 5642 5641 5641 5640 5639 5639 5638 5637 5635 5633 5631 5630 5631 5630
5599 5600 5601 5603 5605 5605 5606 5610 5612 5614 5616 5618 5620 5621 5623 5624 5626 5629 5630 5628 5628 5627 5628 5628 5627 5627 5627 5631 5632 5633 5633 5633 5632 5631 5631 5631 5630 5628 5626 5624 5622 5621 5621 5621
5595 5596 5597 5598 5599 5602 5604 5605 5607 5609 5611 5613 5615 5617 5619 5620 5621 5622 5622 5622 5621 5620 5622 5621 5619 5618 5620 5622 5623 5624 5623 5623 5622 5622 5621 5620 5618 5617 5616 5614 5612 5611 5610 5610
5592 5593 5594 5596 5597 5599 5601 5602 5603 5604 5605 5607 5608 5611 5613 5614 5614 5615 5614 5614 5614 5613 5614 5614 5614 5612 5613 5614 5614 5613 5613 5613 5613 5612 5611 5609 5607 5606 5605 5603 5602 5601 5601 5601
5592 5593 5593 5594 5596 5597 5598 5599 5599 5600 5601 5601 5602 5603 5606 5607 5607 5608 5608 5608 5608 5608 5608 5607 5606 5605 5605 5605 5605 5604 5603 5603 5602 5601 5600 5598 5597 5596 5595 5594 5592 5591 5591 5590